Regional Weather Roundup
Issued by NWS

Home | Current Version | Previous Version | Text Only | Print | Product List | Glossary Off
Versions: 1 2 3 4 5 6 7 8 9 10 11 12 13 14 15 16 17 18 19 20 21 22 23 24 25 26 27

000
ASUS45 KSLC 282210
RWRUT

UTAH REGIONAL WEATHER ROUNDUP
NATIONAL WEATHER SERVICE SALT LAKE CITY UT
400 PM MDT THU APR 28 2016

UTZ001>011-023>025-282300-

NORTHERN UTAH

CITY           SKY/WX    TMP DP  RH WIND       PRES   REMARKS
BRIGHAM CITY   PTSUNNY   58  29  33 E17G24    29.77F
HILL AFB       PTSUNNY   49  36  61 E23G29    29.78S
LOGAN          MOSUNNY   56  32  40 SE18G32   29.79R
OGDEN          CLOUDY    53  32  44 E14       29.76S
PROVO AIRPORT  PTSUNNY  N/A N/A N/A NW16      29.71F
SALT LAKE CITY CLOUDY    57  35  43 SE12      29.74S
VERNAL         LGT RAIN  46  33  60 NE8       29.83R
WENDOVER       CLOUDY    52  37  58 S6        29.80S
HEBER CITY     CLOUDY    46  34  61 N18G25    29.75S

$$

UTZ012>022-026-027-282300-

SOUTHERN/CENTRAL UTAH

CITY           SKY/WX    TMP DP  RH WIND       PRES   REMARKS
BLANDING       CLOUDY    47  33  59 SW15G23   29.84R
BRYCE CANYON   CLOUDY    39  33  79 SE12      29.76S WCI  32
CEDAR CITY     LGT RAIN  44  37  76 E14       29.72R
DELTA          CLOUDY    46  39  76 CALM      29.74R
HANKSVILLE     CLOUDY    46  37  71 W20G29    29.77R
MILFORD        PTSUNNY   48  41  76 E7        29.72S
MOAB/CYNLANDS  CLOUDY    51  41  68 SE6       29.73F
PRICE          CLOUDY    46  38  73 SE9       29.76F
ST GEORGE      CLOUDY    64  37  36 E17G23    29.71S
KANAB          PTSUNNY   54  37  54 S9        29.76F

$$

REGIONAL REPORTS     COLORADO/ARIZONA

CITY           SKY/WX    TMP DP  RH WIND       PRES   REMARKS
CRAIG, CO      CLOUDY    46  38  73 SW15      29.83R THUNDER
GRAND JUNCTION MOSUNNY   54  39  57 NW14      29.74F
RIFLE          CLOUDY    51  36  56 NW12      29.77S
MONTROSE       CLOUDY    54  37  52 W10       29.77R
CORTEZ         CLOUDY    53  28  38 W16       29.75R
PAGE, AZ       PTSUNNY   50  38  63 S10G21    29.74R
GRAND CANYON   LGT RAIN  38  36  92 SW9       29.80R FOG     WCI  31
KINGMAN        CLOUDY    56  43  61 SW8       29.76S
FLAGSTAFF      MOSUNNY   43  24  47 SW26G38   29.79S

$$

REGIONAL REPORTS    NEVADA/IDAHO/WYOMING

CITY           SKY/WX    TMP DP  RH WIND       PRES   REMARKS
LAS VEGAS, NV  CLOUDY    67  46  47 NE13      29.66R
ELY            PTSUNNY   44  35  70 N26G39    29.80S
ELKO           CLOUDY    53  34  48 N13       29.83S
POCATELLO, ID  CLOUDY    62  30  29 NW13      29.78F
BURLEY         CLOUDY    58  35  42 NW10      29.80S
EVANSTON, WY   CLOUDY    37  27  67 E24       29.84S WCI  26
ROCK SPRINGS   LGT SNOW  33  28  81 NE25G32   29.90S WCI  20
KEMMERER       LGT SNOW  34  32  93 E17G23    29.89S WCI  23

$$




USA.gov is the U.S. government's official web portal to all federal, state and local government web resources and services.